TimeMST,TemperatureF,Dew PointF,Humidity,Sea Level PressureIn,VisibilityMPH,Wind Direction,Wind SpeedMPH,Gust SpeedMPH,PrecipitationIn,Events,Conditions,WindDirDegrees,DateUTC
12:53 AM,23.0,16.0,74,29.88,10.0,Variable,3.5,-,N/A,,Clear,0,2013-01-07 07:53:00
1:53 AM,21.0,15.1,78,29.90,10.0,SW,6.9,-,N/A,,Clear,220,2013-01-07 08:53:00
2:53 AM,24.1,16.0,71,29.90,10.0,WSW,13.8,-,N/A,,Clear,240,2013-01-07 09:53:00
3:53 AM,26.1,18.0,71,29.91,10.0,WSW,12.7,-,N/A,,Scattered Clouds,240,2013-01-07 10:53:00
4:53 AM,26.1,19.0,75,29.91,10.0,WSW,11.5,-,N/A,,Clear,240,2013-01-07 11:53:00
5:53 AM,21.9,16.0,78,29.94,10.0,WSW,11.5,-,N/A,,Partly Cloudy,240,2013-01-07 12:53:00
6:53 AM,19.0,15.1,85,29.94,10.0,SSW,12.7,-,N/A,,Clear,210,2013-01-07 13:53:00
7:53 AM,18.0,12.9,81,29.94,10.0,SSW,8.1,-,N/A,,Clear,210,2013-01-07 14:53:00
8:53 AM,19.0,14.0,81,29.94,10.0,SW,12.7,-,N/A,,Clear,220,2013-01-07 15:53:00
9:53 AM,23.0,16.0,74,29.92,10.0,WNW,5.8,-,N/A,,Clear,300,2013-01-07 16:53:00
10:53 AM,27.0,19.0,72,29.91,10.0,WNW,3.5,-,N/A,,Clear,290,2013-01-07 17:53:00
11:53 AM,32.0,21.2,64,29.76,10.0,Calm,Calm,-,N/A,,Clear,0,2013-01-07 18:53:00
12:53 PM,36.0,21.9,57,29.79,10.0,Calm,Calm,-,N/A,,Clear,0,2013-01-07 19:53:00
1:53 PM,37.0,25.0,62,29.75,10.0,SSW,5.8,-,N/A,,Clear,210,2013-01-07 20:53:00
2:53 PM,37.9,25.0,60,29.71,10.0,SSW,8.1,-,N/A,,Clear,210,2013-01-07 21:53:00
3:53 PM,35.6,24.8,65,29.61,10.0,SSW,8.1,-,N/A,,Clear,200,2013-01-07 22:53:00
4:53 PM,30.9,21.9,69,29.65,10.0,Calm,Calm,-,N/A,,Clear,0,2013-01-07 23:53:00
5:53 PM,32.0,21.9,66,29.64,10.0,West,4.6,-,N/A,,Overcast,280,2013-01-08 00:53:00
6:53 PM,37.9,27.0,65,29.61,10.0,SW,12.7,-,N/A,,Overcast,230,2013-01-08 01:53:00
7:53 PM,37.0,28.9,73,29.57,10.0,SW,10.4,-,N/A,,Overcast,230,2013-01-08 02:53:00
8:53 PM,37.0,28.0,70,29.56,10.0,SW,21.9,-,N/A,,Overcast,230,2013-01-08 03:53:00
9:53 PM,37.0,28.0,70,29.55,10.0,SW,17.3,-,N/A,,Overcast,230,2013-01-08 04:53:00
10:53 PM,37.0,28.0,70,29.56,10.0,SW,18.4,-,N/A,,Partly Cloudy,220,2013-01-08 05:53:00
11:53 PM,36.0,27.0,70,29.57,10.0,SW,16.1,-,N/A,,Overcast,220,2013-01-08 06:53:00